Back to catalog

SL-14 DEB

AlivePO
NORAD 45310·DEBRIS·🇷🇺 Russia

Launched Aug 15, 1991 from Plesetsk Cosmodrome

Loading…

Next Passes (next 24 hours)

TLE

FreshSource: Space-Track

Epoch: Sep 14, 2026, 02:20 UTC

1 45310U 91056AY  26257.09723557 -.00000067  00000-0 -26072-3 0  9999
2 45310  82.5978 143.7711 0100250 222.5317 136.7999 12.97902541310309

Track SL-14 DEB in real time with AllMySat

Download on the App Store